Charlottetown, Prince Edward Island

6:02 PM ADT on October 18, 2017 (GMT -0300)
Charlottetown

Weather History for CYYG - February, 2014

Change the Weather History Date:

Saturday, February 1, 2014

  Actual Average Record
Temperature  
Mean Temperature 24 °F -  
Max Temperature 30 °F 26 °F 46 °F (2016)
Min Temperature 17 °F 10 °F -2 °F (2005)
Degree Days  
Heating Degree Days 42    
Moisture  
Dew Point 16 °F    
Average Humidity 68    
Maximum Humidity 86    
Minimum Humidity 42    
Precipitation  
Precipitation 0.00 in 0.12 in - ()
Sea Level Pressure  
Sea Level Pressure 30.23 in    
Wind  
Wind Speed 7 mph ()    
Max Wind Speed 10 mph    
Max Gust Speed -    
Visibility 15.0 miles    
Events      
Averages and records for this station are not official NWS values.
T = Trace of Precipitation, MM = Missing Value Source: Averaged Metar Reports

Daily Weather History Graph

Daily Weather History Graph

Search for Another Location

Airport or City:

Trip Planner

Search our weather history database for the weather conditions in past years. The results will help you decide how hot, cold, wet, or windy it might be!

Date:

Astronomy

Feb. 01, 2014 Rise Set
Actual Time 7:35 AM AST 5:17 PM AST
Civil Twilight 7:03 AM AST 5:49 PM AST
Nautical Twilight 6:27 AM AST 6:25 PM AST
Astronomical Twilight 5:52 AM AST 7:00 PM AST
Moon 8:12 AM AST (2/1) 7:58 PM AST (2/1)
Length of Visible Light 10h 45m
Length of Day
9h 41m
Waxing Crescent, 5% of the Moon is Illuminated
Feb 1
Waxing Crescent
Feb 6
First Quarter
Feb 14
Full
Feb 22
Last Quarter
Mar 1
New

Hourly Weather History & Observations

Time (AST) Temp. Windchill Dew Point Humidity Pressure Visibility Wind Dir Wind Speed Gust Speed Precip Events Conditions
12:00 AM 28.4 °F 19.7 °F 15.8 °F 59% 30.02 in 15.0 mi West 9.2 mph - N/A   Overcast
1:00 AM 28.4 °F 19.7 °F 15.8 °F 59% 30.05 in 15.0 mi West 9.2 mph - N/A   Overcast
2:00 AM 28 °F - 16 °F 49% 30.06 in 15 mi West 9.2 mph - -   Partly Cloudy
2:00 AM 28.4 °F 19.7 °F 15.8 °F 59% 30.06 in 15.0 mi West 9.2 mph - N/A   Mostly Cloudy
3:00 AM 26.6 °F 17.5 °F 15.8 °F 64% 30.07 in 15.0 mi West 9.2 mph - N/A   Mostly Cloudy
4:00 AM 24.8 °F 15.3 °F 15.8 °F 69% 30.11 in 15.0 mi West 9.2 mph - N/A   Scattered Clouds
5:00 AM 24.8 °F 16.1 °F 15.8 °F 69% 30.15 in 15.0 mi West 8.1 mph - N/A   Partly Cloudy
6:00 AM 23.0 °F 13.9 °F 15.8 °F 74% 30.17 in 15.0 mi West 8.1 mph - N/A   Partly Cloudy
7:00 AM 21.2 °F 13.6 °F 15.8 °F 80% 30.19 in 15.0 mi West 5.8 mph - N/A   Partly Cloudy
8:00 AM 20 °F - 16 °F 78% 30.25 in 15 mi West 4.6 mph - -   Scattered Clouds
8:00 AM 21.2 °F 13.6 °F 15.8 °F 80% 30.25 in 15.0 mi West 5.8 mph - N/A   Scattered Clouds
9:00 AM 21.2 °F 13.6 °F 15.8 °F 80% 30.27 in 15.0 mi West 5.8 mph - N/A   Partly Cloudy
10:00 AM 24.8 °F 17.9 °F 15.8 °F 69% 30.30 in 15.0 mi NW 5.8 mph - N/A   Partly Cloudy
11:00 AM 24.8 °F 17.9 °F 12.2 °F 59% 30.31 in 15.0 mi NW 5.8 mph - N/A   Partly Cloudy
12:00 PM 26.6 °F 19.1 °F 12.2 °F 55% 30.31 in 15.0 mi West 6.9 mph - N/A   Partly Cloudy
1:00 PM 28.4 °F 19.1 °F 14.0 °F 55% 30.29 in 15.0 mi WSW 10.4 mph - N/A   Partly Cloudy
2:00 PM 29 °F - 15 °F 42% 30.30 in 15 mi WSW 8.1 mph - -   Scattered Clouds
2:00 PM 28.4 °F 20.4 °F 14.0 °F 55% 30.30 in 15.0 mi SW 8.1 mph - N/A   Partly Cloudy
3:00 PM 28.4 °F 21.2 °F 15.8 °F 59% 30.31 in 15.0 mi SW 6.9 mph - N/A   Scattered Clouds
4:00 PM 30.2 °F 23.4 °F 15.8 °F 55% 30.32 in 15.0 mi SSW 6.9 mph - N/A   Scattered Clouds
5:00 PM 26.6 °F 20.0 °F 15.8 °F 64% 30.31 in 15.0 mi South 5.8 mph - N/A   Mostly Cloudy
6:00 PM 23.0 °F 15.8 °F 15.8 °F 74% 30.30 in 15.0 mi SSE 5.8 mph - N/A   Mostly Cloudy
7:00 PM 21.2 °F 13.6 °F 15.8 °F 80% 30.30 in 15.0 mi SSE 5.8 mph - N/A   Partly Cloudy
8:00 PM 20 °F - 16 °F 78% 30.29 in 15 mi South 5.8 mph - -   Clear
8:00 PM 19.4 °F 12.8 °F 15.8 °F 86% 30.29 in 15.0 mi South 4.6 mph - N/A   Mostly Cloudy
9:00 PM 21.2 °F 14.9 °F 17.6 °F 86% 30.28 in 15.0 mi South 4.6 mph - N/A   Overcast
10:00 PM 24.8 °F 17.9 °F 19.4 °F 80% 30.26 in 15.0 mi South 5.8 mph - N/A   Overcast
11:00 PM 26.6 °F 18.2 °F 19.4 °F 74% 30.25 in 15.0 mi South 8.1 mph - N/A   Overcast